Flag for India Weather past 2 weeks in Gurdaspur, Punjab, India

Now
82 °F

Haze.


Feels Like: 82 °F
Forecast: 75 / 97 °F
Wind: 9 mph from Southeast

Location: Lahore Airport

Current Time: Apr 26, 2015 at 11:28:06 PM

Latest Report: Apr 26, 2015 at 10:55 PM


Visibility: 2 mi

Pressure: 29.74 "Hg

Humidity: 45%

Dew point: 59 °F

Location of GurdaspurLocation

Historic Weather in Gurdaspur — Graph

°F

Gurdaspur temperature yesterday

Maximum temperature yesterday: 104 °F (at 1:55 PM)
Minimum temperature yesterday: 75 °F (at 5:25 AM)
Average temperature yesterday: 91 °F

Past Weeks' High & Low Weather Summary

 TemperatureHumidityPressure
High104 °F (Apr 24, 3:25 PM)88% (Apr 16, 4:31 AM)30.12 "Hg (Apr 16, 4:31 AM)
Low66 °F (Apr 17, 4:25 AM)12% (Apr 21, 4:25 PM)29.56 "Hg (Apr 19, 6:25 PM)
Average85 °F44%29.80 "Hg
* Reported Apr 11 9:55 PM — Apr 26 10:25 PM, Gurdaspur, Weather by CustomWeather, © 2015

Note: Actual official high and low records may vary slightly from our data, if they occured in-between our weather recording intervals... More about our weather records

Advertising

Gurdaspur weather history for previous 24 hours

 ConditionsComfort  
Time TempWeatherWind HumidityBarometerVisibility
10:25 PM
Sun, Apr 26
82 °FHaze.9 mph45%29.74 "Hg2 mi
9:55 PM84 °FHaze.8 mph43%29.77 "Hg2 mi
9:25 PM86 °FHaze.8 mph43%29.74 "Hg2 mi
9:00 PM88 °FHaze.7 mph40%29.74 "Hg2 mi
8:30 PM90 °FHaze.7 mph36%29.71 "Hg2 mi
7:55 PM91 °FHaze.7 mph32%29.71 "Hg2 mi
7:25 PM93 °FHaze.6 mph30%29.71 "Hg3 mi
6:55 PM95 °FClear.8 mph28%29.71 "Hg4 mi
6:25 PM95 °FClear.9 mph28%29.71 "Hg4 mi
6:00 PM97 °FClear.8 mph27%29.71 "Hg4 mi
5:25 PM97 °FClear.9 mph27%29.71 "Hg4 mi
4:55 PM97 °FClear.8 mph25%29.71 "Hg4 mi
4:25 PM97 °FClear.8 mph25%29.71 "Hg4 mi
3:55 PM97 °FClear.8 mph27%29.74 "Hg4 mi
3:25 PM97 °FClear.7 mph27%29.74 "Hg4 mi
2:55 PM97 °FClear.8 mph27%29.77 "Hg4 mi
2:25 PM95 °FClear.9 mph28%29.77 "Hg4 mi
1:55 PM95 °FClear.12 mph28%29.80 "Hg4 mi
1:25 PM93 °FClear.12 mph30%29.83 "Hg4 mi
12:55 PM93 °FClear.12 mph30%29.83 "Hg4 mi
12:25 PM91 °FHaze.14 mph32%29.83 "Hg4 mi
11:25 AM90 °FHaze.15 mph31%29.86 "Hg3 mi
10:55 AM88 °FHaze.18 mph35%29.86 "Hg2 mi
10:25 AM86 °FHaze.21 mph38%29.86 "Hg2 mi
9:25 AM82 °FHaze.18 mph42%29.86 "Hg2 mi
8:55 AM81 °FHaze.16 mph45%29.86 "Hg2 mi
8:25 AM79 °FHaze.15 mph48%29.86 "Hg2 mi
7:55 AM75 °FClear.14 mph57%29.86 "Hg2 mi
7:25 AM75 °FClear.12 mph57%29.86 "Hg2 mi
6:55 AM75 °FClear.8 mph57%29.83 "Hg2 mi
5:30 AM75 °FClear.9 mph57%29.77 "Hg2 mi
4:55 AM75 °FClear.9 mph57%29.77 "Hg2 mi
4:25 AM77 °FClear.9 mph54%29.74 "Hg2 mi
3:55 AM77 °FClear.9 mph54%29.74 "Hg2 mi
3:25 AM79 °FClear.9 mph51%29.74 "Hg2 mi
2:25 AM81 °FHaze.9 mph45%29.74 "Hg2 mi
1:55 AM82 °FHaze.8 mph40%29.74 "Hg2 mi
12:55 AM82 °FHaze.9 mph37%29.74 "Hg2 mi
12:25 AM84 °FHaze.8 mph35%29.74 "Hg2 mi
11:55 PM
Sat, Apr 25
86 °FHaze.6 mph33%29.71 "Hg3 mi
11:25 PM88 °FHaze.3 mph31%29.71 "Hg3 mi
Weather by CustomWeather, © 2015

See weather overviewHow to use our weather pages